sat.trackr.live / text

‹ back to catalog

YAM-16

NORAD 68992 · 2026-100N

PAYLOAD ACTIVE UNKNOWN

§ Identity

Operator
Country
US
Launch date
2026-05-03
Launch site
AFWTR
Launch vehicle
Mass (kg)
RCS (m²)

External: N2YO · Heavens-Above · Gunter

§ Orbital elements

Epoch: 2026-05-25T03:19:29.885376Z

Period
96.56 min
Inclination
97.7394°
Eccentricity
0.0002474
Mean motion
14.91354899 rev/d
Perigee alt
592.0 km
Apogee alt
595.4 km
Semi-major
6,971.8 km
B*
1.5281e-4
RAAN
43.0135°
Arg perigee
194.3173°
Mean anomaly
165.7975°
Rev number
326

§ Raw data

YAM-161 68992U 26100N   26145.13854034  .00001469  00000+0  15281-3 0  99982 68992  97.7394  43.0135 0002474 194.3173 165.7975 14.91354899  3260

JSON: /api/v1/satellites/68992 · /tle

For live sub-satellite position, see the globe view (requires WebGL).

§ Visibility from observer

Set your observer location to see the next 7 days of passes ≥ 10°. The values pass through the URL so the page stays shareable.

No JS? Fill the form by hand. The geolocation button needs JavaScript.